{"data":{"norad_id":66340,"epoch":"2026-05-25T00:17:33.702432Z","epoch_age_seconds":71115,"freshness":"FRESH","line1":"1 66340U 25253X   26145.01219563  .00025832  00000+0  94479-3 0  9996","line2":"2 66340  42.9983 141.7667 0000924 289.4595  70.6156 15.27585771 31912","mean_motion":15.27585771,"eccentricity":9.24e-5,"inclination_deg":42.9983,"raan_deg":141.7667,"arg_perigee_deg":289.4595,"mean_anomaly_deg":70.6156,"bstar":0.00094479,"rev_number":3191,"period_min":94.266392587392,"perigee_km":482.39784364538,"apogee_km":483.66578764251,"semimajor_km":6861.1688156439,"source":"CELESTRAK","updated_at":"2026-05-25T13:38:21.171325Z"}}